User: anonymous   Login
Location: Unspecified
(0.0000°N, 0.0000°E)
Time: 03:00:25
(UTC+00:00)
Language:

STARLINK-32281 - Orbit

View from above orbital plane
View from above orbital plane
View from above satellite
View from above satellite

Ground track
Ground track

The orbit is defined by the following mean orbital elements,

1 60375U          26145.45579632 +.00000000 +00000-0 -23068-4 0 00007
2 60375  53.1618 312.8311 0001033  91.8603 268.2516 15.30178892    04
Epoch (UTC): 25 May 2026 10:56:20
Eccentricity: 0.0001033
inclination: 53.1618°
perigee height: 475 km
apogee height: 476 km
right ascension of ascending node: 312.8311°
argument of perigee: 91.8603°
revolutions per day: 15.30178892
mean anomaly at epoch: 268.2516°

The dashed part of the orbit path shows where the satellite is in the earth's shadow,  

DLR